FW0708 Weather Reports


Display with metric or nautical units.
time (UTC)temp
F
wind
direction
speed
MPH
gust
MPH
rain 1hr
in
rain 24hr
in
rain mn
in
humidity
%
barometer
mb
20260902031540 64 260 0.0 1.0 0.00 0.01 0.01 81 1010.9
20260902030039 65 260 0.0 0.0 0.00 0.01 0.01 80 1010.8
20260902024539 65 260 0.0 0.0 0.00 0.01 0.01 79 1010.9
20260902023038 66 260 0.0 0.0 0.00 0.01 0.01 77 1010.9
20260902021548 67 260 0.0 1.0 0.00 0.01 0.01 75 1010.8
20260902020037 68 260 0.0 1.0 0.00 0.01 0.01 72 1010.6
20260902014543 70 260 0.0 1.0 0.00 0.01 0.01 69 1010.4
20260902013036 71 260 0.0 1.0 0.00 0.01 0.01 65 1010.2
20260902011547 73 260 1.0 3.0 0.00 0.01 0.01 62 1010.1
20260902010106 75 260 0.0 1.0 0.00 0.01 0.01 57 1009.9
20260902004535 77 260 0.0 3.0 0.00 0.01 0.01 54 1009.7
20260902003035 78 261 1.0 4.0 0.00 0.01 0.01 49 1009.8
20260902001534 80 262 1.0 3.0 0.00 0.01 0.01 48 1009.7
20260902000043 81 260 1.0 4.0 0.00 0.01 0.01 46 1009.6
20260901234533 81 257 1.0 7.0 0.00 0.01 0.01 44 1009.5
20260901233033 82 255 1.0 5.0 0.00 0.01 0.01 43 1009.3
20260901231541 82 243 2.0 7.0 0.00 0.01 0.01 41 1009.3
20260901230036 83 226 0.0 9.0 0.00 0.01 0.01 40 1009.2
20260901224541 83 237 5.0 10.0 0.00 0.01 0.01 38 1009.1
20260901223045 84 243 2.0 11.0 0.00 0.01 0.01 39 1009.2
20260901221530 85 280 6.0 19.0 0.00 0.01 0.01 36 1009.3
20260901220031 87 259 7.0 17.0 0.00 0.01 0.01 33 1009.1
20260901214531 87 283 6.0 21.0 0.00 0.01 0.01 34 1009.2
20260901213039 87 228 7.0 18.0 0.00 0.01 0.01 35 1009.1
20260901211530 87 246 8.0 15.0 0.00 0.01 0.01 34 1009.0
20260901210038 87 278 7.0 14.0 0.00 0.01 0.01 33 1008.8
20260901204530 88 269 9.0 19.0 0.00 0.01 0.01 31 1008.8
20260901203028 90 228 8.0 20.0 0.00 0.01 0.01 31 1008.8
20260901201526 89 253 8.0 17.0 0.00 0.01 0.01 32 1008.7
20260901200040 89 282 4.0 13.0 0.00 0.01 0.01 34 1008.9
20260901194529 89 220 9.0 19.0 0.00 0.01 0.01 31 1009.1
20260901193022 89 210 8.0 12.0 0.00 0.01 0.01 34 1008.8
20260901191527 88 238 5.0 10.0 0.00 0.01 0.01 37 1009.3
20260901190016 88 269 5.0 14.0 0.00 0.01 0.01 37 1009.5
20260901184514 88 215 4.0 14.0 0.00 0.01 0.01 38 1009.8
20260901183013 87 202 10.0 16.0 0.00 0.01 0.01 36 1009.9
20260901181509 87 280 4.0 14.0 0.00 0.01 0.01 38 1010.1
20260901180020 86 262 7.0 18.0 0.00 0.01 0.01 38 1010.4
20260901174504 86 242 6.0 11.0 0.00 0.01 0.01 39 1010.5
20260901173102 85 217 3.0 10.0 0.00 0.01 0.01 41 1010.7
20260901171557 84 249 0.0 13.0 0.00 0.01 0.01 43 1010.9
20260901170155 83 202 0.0 7.0 0.00 0.01 0.01 47 1011.0
20260901164550 82 215 1.0 5.0 0.00 0.01 0.01 48 1011.2
20260901163046 82 199 0.0 4.0 0.00 0.01 0.01 54 1011.2
20260901161548 81 199 0.0 3.0 0.00 0.01 0.01 55 1011.4
20260901160040 80 199 0.0 4.0 0.00 0.01 0.01 58 1011.5
20260901154533 78 185 0.0 7.0 0.00 0.01 0.01 61 1011.4
20260901153028 77 208 0.0 6.0 0.00 0.01 0.01 64 1011.5
20260901151524 76 233 0.0 4.0 0.00 0.01 0.01 70 1011.4
20260901150021 74 235 1.0 6.0 0.00 0.01 0.01 71 1011.7
20260901144516 73 239 5.0 8.0 0.00 0.01 0.01 74 1011.5
20260901143015 72 233 4.0 10.0 0.00 0.01 0.01 77 1011.9
20260901141507 70 222 3.0 9.0 0.00 0.01 0.01 80 1011.5
20260901140004 69 211 3.0 7.0 0.00 0.01 0.01 82 1011.5
20260901134559 67 223 2.0 7.0 0.00 0.01 0.01 87 1011.5
20260901133055 66 228 2.0 8.0 0.00 0.01 0.01 93 1011.6
20260901131600 64 218 0.0 7.0 0.00 0.01 0.01 97 1011.7
20260901130057 63 226 1.0 7.0 0.00 0.01 0.01 97 1011.6
20260901124542 62 243 1.0 5.0 0.00 0.02 0.01 98 1011.3
20260901123042 61 221 0.0 3.0 0.00 0.02 0.01 97 1011.3
20260901121537 60 223 0.0 3.0 0.00 0.02 0.01 97 1011.2
20260901120030 60 237 0.0 1.0 0.00 0.02 0.01 97 1010.9
20260901114528 60 178 0.0 2.0 0.00 0.08 0.01 97 1010.6
20260901113025 60 190 0.0 4.0 0.00 0.08 0.01 97 1010.6
20260901111524 60 201 0.0 3.0 0.00 0.08 0.01 97 1010.3
20260901110024 60 193 0.0 1.0 0.00 0.08 0.01 97 1010.2
20260901104528 60 156 0.0 3.0 0.00 0.08 0.01 97 1010.3
20260901103023 60 200 0.0 1.0 0.00 0.08 0.01 97 1010.3
20260901101522 60 200 0.0 2.0 0.00 0.08 0.01 97 1010.4
20260901100026 60 200 0.0 1.0 0.00 0.08 0.01 97 1010.5
20260901094519 61 200 0.0 1.0 0.00 0.08 0.01 97 1010.5
20260901093017 61 200 0.0 2.0 0.00 0.08 0.01 97 1010.4
20260901091516 62 200 0.0 5.0 0.00 0.08 0.01 97 1010.3
20260901090025 62 199 0.0 2.0 0.01 0.08 0.01 97 1010.3
20260901084514 62 199 0.0 1.0 0.01 0.08 0.01 97 1010.2
20260901083027 62 199 0.0 3.0 0.01 0.08 0.01 97 1010.3
20260901081515 62 196 0.0 2.0 0.01 0.08 0.01 97 1010.3
20260901080011 63 205 0.0 2.0 0.00 0.07 0.00 96 1010.4
20260901074517 63 178 0.0 4.0 0.00 0.07 0.00 96 1010.4
20260901073019 63 178 0.0 1.0 0.00 0.07 0.00 96 1010.3
20260901071506 64 178 0.0 1.0 0.00 0.07 0.00 96 1010.2
20260901070006 64 178 0.0 2.0 0.00 0.07 0.00 96 1010.3
20260901064503 64 181 0.0 1.0 0.00 0.07 0.00 96 1010.4
20260901063002 65 175 0.0 1.0 0.00 0.07 0.00 96 1010.3
20260901061502 65 176 0.0 1.0 0.00 0.07 0.00 96 1010.3
20260901060001 65 169 0.0 3.0 0.00 0.07 0.00 96 1010.2
20260901054611 65 160 0.0 1.0 0.00 0.12 0.00 96 1010.2
20260901053121 65 156 0.0 0.0 0.00 0.12 0.00 96 1010.3
20260901051557 65 156 0.0 0.0 0.00 0.12 0.00 95 1010.4
20260901050057 65 233 0.0 0.0 0.00 0.12 0.00 95 1010.3
20260901044555 65 95 0.0 0.0 0.00 0.12 0.12 95 1010.3
20260901043052 65 95 0.0 0.0 0.00 0.12 0.12 95 1010.0
20260901041551 66 95 0.0 0.0 0.00 0.12 0.12 95 1010.0
20260901040051 66 95 0.0 0.0 0.00 0.12 0.12 94 1009.8
20260901034553 66 95 0.0 0.0 0.00 0.12 0.12 93 1009.9
20260901033055 67 95 0.0 0.0 0.00 0.12 0.12 93 1009.9